| time (UTC) | temp F | wind direction | speed MPH | gust MPH | rain 1hr in | rain 24hr in | rain mn in | humidity % | barometer mb |
| 20260507171546 | 62 | 238 | 2.0 | 0.0 | 0.00 | 0.00 | 0.00 | 38 | 1004.8 |
| 20260507170046 | 61 | 235 | 3.0 | 0.0 | 0.00 | 0.00 | 0.00 | 38 | 1005.1 |
| 20260507164521 | 61 | 10 | 3.0 | 0.0 | 0.00 | 0.00 | 0.00 | 37 | 1005.5 |
| 20260507163018 | 61 | 33 | 3.0 | 0.0 | 0.00 | 0.00 | 0.00 | 43 | 1005.6 |
| 20260507161610 | 59 | 2 | 3.0 | 0.0 | 0.00 | 0.00 | 0.00 | 48 | 1005.6 |
| 20260507160115 | 59 | 183 | 2.0 | 0.0 | 0.00 | 0.00 | 0.00 | 49 | 1005.9 |
| 20260507154539 | 59 | 284 | 2.0 | 0.0 | 0.00 | 0.00 | 0.00 | 49 | 1006.0 |
| 20260507153036 | 58 | 43 | 4.0 | 0.0 | 0.00 | 0.00 | 0.00 | 51 | 1006.0 |
| 20260507151520 | 58 | 341 | 3.0 | 0.0 | 0.00 | 0.00 | 0.00 | 57 | 1006.2 |
| 20260507150016 | 58 | 311 | 2.0 | 0.0 | 0.00 | 0.00 | 0.00 | 56 | 1006.1 |
| 20260507144604 | 58 | 273 | 3.0 | 0.0 | 0.00 | 0.00 | 0.00 | 61 | 1006.2 |
| 20260507143100 | 56 | 194 | 2.0 | 0.0 | 0.00 | 0.00 | 0.00 | 60 | 1006.3 |
| 20260507141537 | 58 | 338 | 2.0 | 0.0 | 0.00 | 0.00 | 0.00 | 61 | 1006.3 |
| 20260507140037 | 57 | 263 | 2.0 | 0.0 | 0.00 | 0.00 | 0.00 | 63 | 1006.2 |
| 20260507134520 | 56 | 269 | 1.0 | 0.0 | 0.00 | 0.00 | 0.00 | 68 | 1006.2 |
| 20260507133018 | 57 | 321 | 2.0 | 0.0 | 0.00 | 0.00 | 0.00 | 63 | 1006.1 |
| 20260507131614 | 56 | 345 | 2.0 | 0.0 | 0.00 | 0.00 | 0.00 | 64 | 1006.3 |
| 20260507130054 | 55 | 240 | 2.0 | 0.0 | 0.00 | 0.00 | 0.00 | 67 | 1006.4 |
| 20260507124553 | 55 | 311 | 1.0 | 0.0 | 0.00 | 0.00 | 0.00 | 71 | 1006.4 |
| 20260507123040 | 54 | 328 | 1.0 | 0.0 | 0.00 | 0.00 | 0.00 | 72 | 1006.5 |
| 20260507121529 | 53 | 285 | 1.0 | 0.0 | 0.00 | 0.00 | 0.00 | 77 | 1006.6 |
| 20260507120013 | 51 | 191 | 1.0 | 0.0 | 0.00 | 0.00 | 0.00 | 82 | 1006.6 |
| 20260507114507 | 49 | 285 | 0.0 | 0.0 | 0.00 | 0.00 | 0.00 | 84 | 1006.5 |
| 20260507113006 | 48 | 226 | 0.0 | 0.0 | 0.00 | 0.00 | 0.00 | 87 | 1006.5 |
| 20260507111507 | 47 | 200 | 0.0 | 0.0 | 0.00 | 0.00 | 0.00 | 89 | 1006.3 |
| 20260507110059 | 47 | 195 | 0.0 | 0.0 | 0.00 | 0.00 | 0.23 | 89 | 1006.4 |
| 20260507104555 | 47 | 207 | 0.0 | 0.0 | 0.00 | 0.00 | 0.23 | 89 | 1006.3 |
| 20260507103051 | 47 | 242 | 0.0 | 0.0 | 0.00 | 0.00 | 0.23 | 89 | 1005.8 |
| 20260507101601 | 47 | 70 | 0.0 | 0.0 | 0.00 | 0.00 | 0.23 | 89 | 1005.8 |
| 20260507100033 | 47 | 282 | 0.0 | 0.0 | 0.00 | 0.00 | 0.23 | 90 | 1005.7 |
| 20260507094528 | 47 | 309 | 0.0 | 0.0 | 0.00 | 0.00 | 0.23 | 89 | 1005.7 |
| 20260507093023 | 47 | 314 | 0.0 | 0.0 | 0.00 | 0.00 | 0.23 | 89 | 1006.0 |
| 20260507091518 | 47 | 281 | 0.0 | 0.0 | 0.00 | 0.00 | 0.23 | 89 | 1006.0 |
| 20260507090014 | 47 | 357 | 0.0 | 0.0 | 0.00 | 0.00 | 0.23 | 89 | 1006.0 |
| 20260507084514 | 47 | 10 | 0.0 | 0.0 | 0.00 | 0.00 | 0.23 | 90 | 1005.9 |
| 20260507083006 | 48 | 91 | 0.0 | 0.0 | 0.00 | 0.00 | 0.23 | 90 | 1006.0 |
| 20260507081501 | 48 | 10 | 0.0 | 0.0 | 0.00 | 0.00 | 0.23 | 89 | 1005.8 |
| 20260507080040 | 48 | 284 | 0.0 | 0.0 | 0.00 | 0.00 | 0.23 | 88 | 1005.8 |
| 20260507074535 | 49 | 317 | 0.0 | 0.0 | 0.00 | 0.00 | 0.23 | 87 | 1005.6 |
| 20260507073014 | 49 | 142 | 0.0 | 0.0 | 0.00 | 0.00 | 0.23 | 89 | 1005.9 |
| 20260507071509 | 49 | 349 | 0.0 | 0.0 | 0.00 | 0.00 | 0.23 | 89 | 1005.3 |
| 20260507070051 | 50 | 349 | 0.0 | 0.0 | 0.00 | 0.00 | 0.23 | 89 | 1005.1 |
| 20260507064600 | 50 | 35 | 1.0 | 0.0 | 0.00 | 0.00 | 0.23 | 90 | 1005.1 |
| 20260507063021 | 50 | 37 | 0.0 | 0.0 | 0.00 | 0.00 | 0.23 | 90 | 1005.0 |
| 20260507061518 | 51 | 240 | 0.0 | 0.0 | 0.00 | 0.00 | 0.23 | 91 | 1004.8 |
| 20260507060058 | 51 | 170 | 0.0 | 0.0 | 0.00 | 0.00 | 0.23 | 90 | 1005.1 |
| 20260507054604 | 52 | 72 | 0.0 | 0.0 | 0.00 | 0.00 | 0.23 | 91 | 1005.0 |
| 20260507053030 | 52 | 72 | 0.0 | 0.0 | 0.00 | 0.00 | 0.23 | 92 | 1005.7 |
| 20260507051526 | 52 | 353 | 0.0 | 0.0 | 0.00 | 0.00 | 0.23 | 93 | 1005.4 |
| 20260507050008 | 53 | 1 | 0.0 | 0.0 | 0.00 | 0.00 | 0.23 | 92 | 1005.6 |
| 20260507044501 | 53 | 327 | 0.0 | 0.0 | 0.00 | 0.00 | 0.23 | 92 | 1005.2 |
| 20260507043039 | 54 | 34 | 0.0 | 0.0 | 0.00 | 0.00 | 0.23 | 92 | 1005.2 |
| 20260507041549 | 54 | 15 | 0.0 | 0.0 | 0.00 | 0.00 | 0.22 | 92 | 1005.2 |
| 20260507040013 | 54 | 15 | 0.0 | 0.0 | 0.00 | 0.00 | 0.22 | 91 | 1005.2 |
| 20260507034513 | 55 | 283 | 1.0 | 0.0 | 0.00 | 0.00 | 0.22 | 91 | 1005.3 |
| 20260507033047 | 56 | 146 | 0.0 | 0.0 | 0.00 | 0.00 | 0.22 | 92 | 1004.9 |
| 20260507031543 | 57 | 313 | 0.0 | 0.0 | 0.00 | 0.00 | 0.22 | 93 | 1004.4 |
| 20260507030021 | 57 | 4 | 1.0 | 0.0 | 0.00 | 0.00 | 0.21 | 92 | 1004.0 |
| 20260507024517 | 58 | 37 | 1.0 | 0.0 | 0.00 | 0.00 | 0.21 | 94 | 1004.1 |
| 20260507023111 | 59 | 190 | 1.0 | 0.0 | 0.00 | 0.00 | 0.21 | 94 | 1004.0 |
| 20260507021554 | 59 | 177 | 1.0 | 0.0 | 0.00 | 0.00 | 0.21 | 95 | 1004.1 |
| 20260507020029 | 58 | 220 | 0.0 | 0.0 | 0.00 | 0.00 | 0.21 | 95 | 1003.7 |
| 20260507014545 | 58 | 185 | 0.0 | 0.0 | 0.00 | 0.00 | 0.21 | 95 | 1003.8 |
| 20260507013013 | 58 | 180 | 0.0 | 0.0 | 0.00 | 0.00 | 0.21 | 95 | 1003.7 |
| 20260507011600 | 58 | 269 | 0.0 | 0.0 | 0.00 | 0.00 | 0.21 | 94 | 1003.7 |
| 20260507010038 | 58 | 123 | 1.0 | 0.0 | 0.00 | 0.00 | 0.21 | 94 | 1003.7 |
| 20260507004533 | 58 | 195 | 2.0 | 0.0 | 0.00 | 0.00 | 0.21 | 94 | 1003.7 |
| 20260507003012 | 58 | 225 | 2.0 | 0.0 | 0.00 | 0.00 | 0.21 | 94 | 1003.6 |
| 20260507001508 | 58 | 171 | 2.0 | 0.0 | 0.00 | 0.00 | 0.21 | 94 | 1003.4 |
| 20260507000048 | 58 | 202 | 1.0 | 0.0 | 0.00 | 0.00 | 0.21 | 94 | 1003.5 |
| 20260506234542 | 58 | 213 | 1.0 | 0.0 | 0.00 | 0.00 | 0.21 | 94 | 1003.3 |
| 20260506233023 | 59 | 285 | 1.0 | 0.0 | 0.00 | 0.00 | 0.21 | 94 | 1003.2 |
| 20260506231516 | 59 | 166 | 1.0 | 0.0 | 0.00 | 0.00 | 0.21 | 94 | 1003.2 |
| 20260506230054 | 59 | 309 | 2.0 | 0.0 | 0.00 | 0.00 | 0.21 | 94 | 1003.4 |
| 20260506224551 | 59 | 207 | 2.0 | 0.0 | 0.00 | 0.00 | 0.18 | 93 | 1003.4 |
| 20260506223029 | 59 | 181 | 3.0 | 0.0 | 0.00 | 0.00 | 0.17 | 93 | 1003.4 |
| 20260506221524 | 59 | 181 | 2.0 | 0.0 | 0.00 | 0.00 | 0.15 | 93 | 1003.6 |
| 20260506220004 | 59 | 128 | 2.0 | 0.0 | 0.00 | 0.00 | 0.14 | 93 | 1003.8 |
| 20260506214609 | 59 | 146 | 2.0 | 0.0 | 0.00 | 0.00 | 0.13 | 92 | 1003.7 |
| 20260506213038 | 59 | 191 | 2.0 | 0.0 | 0.00 | 0.00 | 0.12 | 92 | 1003.7 |
| 20260506211534 | 59 | 196 | 2.0 | 0.0 | 0.00 | 0.00 | 0.11 | 92 | 1003.8 |
| 20260506210014 | 60 | 101 | 2.0 | 0.0 | 0.00 | 0.00 | 0.11 | 92 | 1004.1 |
| 20260506204508 | 60 | 168 | 1.0 | 0.0 | 0.00 | 0.00 | 0.11 | 92 | 1004.2 |
| 20260506203048 | 60 | 184 | 2.0 | 0.0 | 0.00 | 0.00 | 0.09 | 91 | 1004.4 |
| 20260506201542 | 61 | 207 | 3.0 | 0.0 | 0.00 | 0.00 | 0.07 | 90 | 1004.2 |
| 20260506200021 | 61 | 249 | 2.0 | 0.0 | 0.00 | 0.00 | 0.06 | 89 | 1004.3 |
| 20260506194516 | 62 | 343 | 3.0 | 0.0 | 0.00 | 0.00 | 0.06 | 88 | 1004.5 |
| 20260506193114 | 62 | 174 | 3.0 | 0.0 | 0.00 | 0.00 | 0.06 | 88 | 1004.4 |
| 20260506191550 | 62 | 272 | 2.0 | 0.0 | 0.00 | 0.00 | 0.06 | 89 | 1004.4 |
| 20260506190046 | 62 | 199 | 0.0 | 0.0 | 0.00 | 0.00 | 0.05 | 89 | 1004.3 |
| 20260506184524 | 63 | 258 | 1.0 | 0.0 | 0.00 | 0.00 | 0.04 | 87 | 1004.6 |
| 20260506183023 | 63 | 220 | 2.0 | 0.0 | 0.00 | 0.00 | 0.03 | 85 | 1004.8 |
| 20260506181558 | 65 | 237 | 1.0 | 0.0 | 0.00 | 0.00 | 0.01 | 80 | 1005.0 |
| 20260506180104 | 68 | 174 | 4.0 | 0.0 | 0.00 | 0.00 | 0.00 | 70 | 1005.0 |
| 20260506174533 | 70 | 286 | 3.0 | 0.0 | 0.00 | 0.00 | 0.00 | 64 | 1004.9 |
| 20260506173028 | 70 | 174 | 4.0 | 0.0 | 0.00 | 0.00 | 0.00 | 62 | 1004.8 |